Weather History for KCVG - December, 2011

Change the Weather History Date:

Sunday, December 25, 2011

  Actual Average Record
Temperature  
Mean Temperature 41 °F 32 °F  
Max Temperature 52 °F 39 °F 66 °F (1893)
Min Temperature 29 °F 25 °F -12 °F (1983)
Degree Days  
Heating Degree Days 24 33  
Month to date heating degree days 632 757  
Since 1 July heating degree days 1496 1717  
Cooling Degree Days 0 0  
Month to date cooling degree days 0 0  
Year to date cooling degree days 1349 1121  
Moisture  
Dew Point 28 °F    
Average Humidity 65    
Maximum Humidity 92    
Minimum Humidity 38    
Precipitation  
Precipitation 0.00 in 0.11 in 1.12 in (1957)
Month to date precipitation 5.64 2.72  
Year to date precipitation 72.40 41.87  
Snow  
Snow 0.00 in 0.20 in 3.70 in (1909)
Month to date snowfall T 3.6  
Since 1 July snowfall 0.4 4.4  
Snow Depth 0.00 in    
Sea Level Pressure  
Sea Level Pressure 30.25 in    
Wind  
Wind Speed 11 mph (WSW)    
Max Wind Speed 28 mph    
Max Gust Speed 35 mph    
Visibility 10 miles    
Events      
T = Trace of Precipitation, MM = Missing Value Source: NWS Daily Summary

Daily Weather History Graph

Daily Weather History Graph

Search for Another Location

Airport or City:

Trip Planner

Search our weather history database for the weather conditions in past years. The results will help you decide how hot, cold, wet, or windy it might be!

Date:

Astronomy

Dec. 25, 2011 Rise Set
Actual Time 7:55 AM EST 5:21 PM EST
Civil Twilight 7:25 AM EST 5:51 PM EST
Nautical Twilight 6:52 AM EST 6:25 PM EST
Astronomical Twilight 6:19 AM EST 6:57 PM EST
Moon 8:33 AM EST (12/25) 6:40 PM EST (12/25)
Length of Visible Light 10h 25m
Length of Day
9h 25m
New Moon, 1% of the Moon is Illuminated
Dec 25
New Moon
Jan 1
First Quarter
Jan 9
Full
Jan 16
Last Quarter
Jan 23
New

Hourly Weather History & Observations

Time (EST) Temp. Windchill Dew Point Humidity Pressure Visibility Wind Dir Wind Speed Gust Speed Precip Events Conditions
12:52 AM 30.9 °F 24.3 °F 26.1 °F 82% 30.33 in 10.0 mi SSW 6.9 mph - N/A   Clear
1:52 AM 32.0 °F 25.6 °F 27.0 °F 82% 30.32 in 9.0 mi SW 6.9 mph - N/A   Clear
2:52 AM 30.9 °F 24.3 °F 27.0 °F 85% 30.32 in 9.0 mi SW 6.9 mph - N/A   Clear
3:52 AM 30.9 °F 25.2 °F 27.0 °F 85% 30.30 in 10.0 mi SW 5.8 mph - N/A   Clear
4:52 AM 30.9 °F 25.2 °F 26.1 °F 82% 30.29 in 10.0 mi SSW 5.8 mph - N/A   Clear
5:52 AM 30.0 °F 24.1 °F 26.1 °F 85% 30.27 in 9.0 mi SSW 5.8 mph - N/A   Clear
6:52 AM 30.0 °F 24.1 °F 26.1 °F 85% 30.27 in 8.0 mi SSW 5.8 mph - N/A   Clear
7:52 AM 28.9 °F 21.1 °F 26.1 °F 89% 30.25 in 7.0 mi SSW 8.1 mph - N/A   Scattered Clouds
8:52 AM 30.9 °F 23.5 °F 27.0 °F 85% 30.25 in 6.0 mi South 8.1 mph - N/A   Scattered Clouds
9:52 AM 35.1 °F 27.9 °F 28.9 °F 78% 30.25 in 9.0 mi SW 9.2 mph - N/A   Mostly Cloudy
10:52 AM 39.9 °F 32.9 °F 28.9 °F 65% 30.25 in 10.0 mi WSW 11.5 mph 18.4 mph N/A   Mostly Cloudy
11:52 AM 44.1 °F 37.4 °F 28.9 °F 55% 30.20 in 10.0 mi SSW 13.8 mph 19.6 mph N/A   Scattered Clouds
12:52 PM 48.0 °F - 28.9 °F 48% 30.16 in 10.0 mi WSW 12.7 mph 24.2 mph N/A   Partly Cloudy
1:52 PM 50.0 °F - 28.9 °F 44% 30.14 in 10.0 mi SW 17.3 mph 21.9 mph N/A   Clear
2:52 PM 51.1 °F - 28.9 °F 43% 30.12 in 10.0 mi SW 10.4 mph - N/A   Clear
3:52 PM 51.1 °F - 26.1 °F 38% 30.14 in 10.0 mi West 15.0 mph 23.0 mph N/A   Clear
4:52 PM 48.0 °F - 28.0 °F 46% 30.16 in 10.0 mi West 19.6 mph 25.3 mph N/A   Partly Cloudy
5:52 PM 44.6 °F 37.4 °F 26.6 °F 49% 30.18 in 10.0 mi WNW 16.1 mph 25.3 mph N/A   Clear
6:52 PM 43.0 °F 35.1 °F 28.0 °F 56% 30.23 in 10.0 mi WNW 17.3 mph - N/A   Clear
7:52 PM 41.0 °F 33.9 °F 28.9 °F 62% 30.27 in 10.0 mi WNW 12.7 mph - N/A   Clear
8:52 PM 39.0 °F 31.8 °F 28.9 °F 67% 30.29 in 10.0 mi NW 11.5 mph - N/A   Clear
9:52 PM 37.9 °F 30.9 °F 28.9 °F 70% 30.31 in 10.0 mi NW 10.4 mph - N/A   Partly Cloudy
10:52 PM 37.0 °F 29.8 °F 28.9 °F 73% 30.32 in 10.0 mi NW 10.4 mph - N/A   Partly Cloudy
11:52 PM 34.0 °F 27.2 °F 28.0 °F 79% 30.33 in 10.0 mi WNW 8.1 mph - N/A   Partly Cloudy